Terminal Aerodrome Forecast
Issued by NWS Raleigh/Durham, NC

Home | Current Version | Previous Version | Text Only | Print | Product List | Glossary On
Versions: 1 2 3 4 5 6 7 8 9 10 11 12 13 14 15 16 17 18 19 20 21 22 23 24 25 26 27 28 29 30 31 32 33 34 35 36 37 38 39 40 41 42 43 44 45 46 47 48 49
000
FTUS42 KRAH 271726
TAFGSO
TAF
KGSO 271726Z 2718/2818 22008KT P6SM VCSH BKN040 BKN250
     FM280100 21005KT P6SM SCT050 BKN250
     FM280900 21003KT P6SM SCT007 BKN010
      TEMPO 2809/2812 4SM BR BKN007
     FM281500 26005KT P6SM SCT015 BKN040=

USA.gov is the U.S. government's official web portal to all federal, state and local government web resources and services.